TOURFACTS.DK  
Stats and Facts from Tour de France.

Tour de France 2018 starts in 254 days
  Riders   Stages   Teams   Summits   Yearly  


 
Search by year

 2017 - St. 21:  14824 starters.
  5131 different riders.
  634 teams.
  2232 stages.
  454 restdays.
  439589.60 km.
  5653 abandonnees.


Top 3
Christopher Froome86:20:55
Rigoberto Uran86:21:49
Romain Bardet86:23:15
Warren Barguil169 pt.
Primoz Roglic80 pt.
Thomas De Gendt64 pt.
Michael Matthews359 pt.
André Greipel234 pt.
Edvald Boasson Hagen220 pt.
Simon Yates86:27:09
Louis Meintjes86:29:15
Emanuel Buchmann86:54:16
Facts from Tour de France 2014
  |   Stages.  |   Stage winners.  |   Days in yellow  |   Average speed.  |   Route.  |   Teams.  |   All riders.  |   Rookies.  |   Withdrawls.  |  

  |   GC.  |   Polka  |   Green  |   White  |   Summits. (In tour)  |   Summits. (Points)  |   Miscellaneous.  |  

Stage 5 on 09 - 07 - 2014
         Owning:    Vincenzo Nibali      Cyril Lemoine      Peter Sagan      Peter Sagan  

Pick a stage:  1 2 3 4 5 6 7 8 9 10 11 12 13 14 15 16 17 18 19 20 21
  YpresArenberg-Porte-du-Hainaut | Dist: 152.50 km.

Average speed for all riders in stage:  43,552 km./hr.
    Place:Name:Team:Time:Km/h:
NEDLars BoomNLDBelkin Pro Cycling03:18:35  +  00:00:00=46,076 
SUIJakob FuglsangKAZAstana Pro Team03:18:54  +  00:00:19=46,003 
ITAVincenzo NibaliKAZAstana Pro Team03:18:54  +  00:00:19=46,003 
4 SVKPeter SaganITACannondale Pro Cycling03:19:36  +  00:01:01=45,842 
5 SUIFabian CancellaraUSATrek Factory Racing03:19:36  +  00:01:01=45,842 
6 BELJens KeukeleireAUSOrica - GreenEDGE03:19:36  +  00:01:01=45,842 
7 POLMichal KwiatkowskiBELOmega Pharma – Quick Step03:19:42  +  00:01:07=45,819 
8 NEDLieuwe WestraKAZAstana Pro Team03:19:44  +  00:01:09=45,811 
9 ITAMatteo TrentinBELOmega Pharma – Quick Step03:19:56  +  00:01:21=45,765 
10 FRACyril LemoineFRACofidis – Solutions Crédits03:20:20  +  00:01:45=45,674 
11 RUSAlexander PorsevRUSTeam Katusha03:20:37  +  00:02:02=45,609 
12 AUSMathew HaymanAUSOrica - GreenEDGE03:20:37  +  00:02:02=45,609 
13 BELSep VanmarckeNLDBelkin Pro Cycling03:20:37  +  00:02:02=45,609 
14 BELJan BakelantsBELOmega Pharma – Quick Step03:20:37  +  00:02:02=45,609 
15 AUSMark RenshawBELOmega Pharma – Quick Step03:20:37  +  00:02:02=45,609 
16 BELJurgen Van Den BroeckBELLotto-Belisol Team03:20:37  +  00:02:02=45,609 
17 GERTony MartinBELOmega Pharma – Quick Step03:20:37  +  00:02:02=45,609 
18 FRATony GallopinBELLotto-Belisol Team03:20:37  +  00:02:02=45,609 
19 BELJürgen RoelandtsBELLotto-Belisol Team03:20:43  +  00:02:08=45,587 
20 AUSRichie PorteGBRSky Procycling03:20:46  +  00:02:11=45,575 
21 WALGeraint ThomasGBRSky Procycling03:20:54  +  00:02:19=45,545 
22 USAAndrew TalanskyUSAGarmin Sharp03:20:57  +  00:02:22=45,534 
23 NEDTom DumoulinNLDTeam Giant - Shimano03:21:03  +  00:02:28=45,511 
24 FRAThibaut PinotFRAFDJ.fr03:21:03  +  00:02:28=45,511 
25 PORRui CostaITALampre-Merida03:21:03  +  00:02:28=45,511 
26 ESPAlejandro ValverdeESPMovistar Team03:21:03  +  00:02:28=45,511 
27 FRARomain BardetFRAAg2r La Mondiale03:21:03  +  00:02:28=45,511 
28 RUSYury TrofimovRUSTeam Katusha03:21:03  +  00:02:28=45,511 
29 KAZDmitriy GruzdevKAZAstana Pro Team03:21:03  +  00:02:28=45,511 
30 SVKPeter VelitsUSABMC Racing Team03:21:03  +  00:02:28=45,511 
31 USATejay Van GarderenUSABMC Racing Team03:21:03  +  00:02:28=45,511 
32 KAZMaxim IglinskiyKAZAstana Pro Team03:21:03  +  00:02:28=45,511 
33 NEDSebastian LangeveldUSAGarmin Sharp03:21:08  +  00:02:33=45,492 
34 NEDBauke MollemaNLDBelkin Pro Cycling03:21:19  +  00:02:44=45,451 
35 ITAMarco MarcatoITACannondale Pro Cycling03:21:19  +  00:02:44=45,451 
36 ITADaniele BennatiRUSTinkoff Saxo03:21:29  +  00:02:54=45,413 
37 ESPAlberto ContadorRUSTinkoff Saxo03:21:29  +  00:02:54=45,413 
38 SUIMichael SchärUSABMC Racing Team03:21:29  +  00:02:54=45,413 
39 NEDTom VeelersNLDTeam Giant - Shimano03:21:29  +  00:02:54=45,413 
40 SUIGregory RastUSATrek Factory Racing03:21:52  +  00:03:17=45,327 
41 BELJohan VansummerenUSAGarmin Sharp03:22:13  +  00:03:38=45,248 
42 BELMaarten WynantsNLDBelkin Pro Cycling03:22:13  +  00:03:38=45,248 
43 NEDNiki TerpstraBELOmega Pharma – Quick Step03:22:18  +  00:03:43=45,230 
44 ESPMikel NieveGBRSky Procycling03:22:21  +  00:03:46=45,219 
45 CZELeopold KönigDEUTeam NetApp – Endura03:22:21  +  00:03:46=45,219 
46 FRAJean-Christophe PeraudFRAAg2r La Mondiale03:22:21  +  00:03:46=45,219 
47 SUIMichael AlbasiniAUSOrica - GreenEDGE03:22:21  +  00:03:46=45,219 
48 GERPaul VossDEUTeam NetApp – Endura03:22:21  +  00:03:46=45,219 
49 ESPJosé Joaquin RojasESPMovistar Team03:22:21  +  00:03:46=45,219 
50 AUSSimon ClarkeAUSOrica - GreenEDGE03:22:21  +  00:03:46=45,219 
51 POLMichal GolasBELOmega Pharma – Quick Step03:22:21  +  00:03:46=45,219 
52 NEDBram TankinkNLDBelkin Pro Cycling03:22:21  +  00:03:46=45,219 
53 AUTBernhard EiselGBRSky Procycling03:22:28  +  00:03:53=45,193 
54 ESPHaimar ZubeldiaUSATrek Factory Racing03:22:51  +  00:04:16=45,107 
55 SUIMathias FrankCHEIAM Cycling03:22:51  +  00:04:16=45,107 
56 PORTiago PintoDEUTeam NetApp – Endura03:22:51  +  00:04:16=45,107 
57 FRAPierre RollandFRATeam Europcar03:22:51  +  00:04:16=45,107 
58 FRAJérôme PineauCHEIAM Cycling03:22:51  +  00:04:16=45,107 
59 FRACyril GautierFRATeam Europcar03:22:51  +  00:04:16=45,107 
60 FRAMatthieu LadagnousFRAFDJ.fr03:22:51  +  00:04:16=45,107 
61 JPNChristopher HornerITALampre-Merida03:22:51  +  00:04:16=45,107 
62 FRAJohn GadretESPMovistar Team03:22:51  +  00:04:16=45,107 
63 NEDSteven KruijswijkNLDBelkin Pro Cycling03:22:51  +  00:04:16=45,107 
64 GERRoger KlugeCHEIAM Cycling03:22:51  +  00:04:16=45,107 
65 ESPJon Izaguirre InsaustiESPMovistar Team03:22:51  +  00:04:16=45,107 
66 NEDLaurens ten DamNLDBelkin Pro Cycling03:22:51  +  00:04:16=45,107 
67 FRAAlexandre PichotFRATeam Europcar03:22:57  +  00:04:22=45,085 
68 GERMarcus BurghardtUSABMC Racing Team03:23:05  +  00:04:30=45,055 
69 LUXBen GastauerFRAAg2r La Mondiale03:24:10  +  00:05:35=44,816 
70 NEDKoen De KortNLDTeam Giant - Shimano03:24:10  +  00:05:35=44,816 
71 RUSVladimir IsaichevRUSTeam Katusha03:24:10  +  00:05:35=44,816 
72 POLMaciej BodnarITACannondale Pro Cycling03:24:10  +  00:05:35=44,816 
73 GERMarcel SiebergBELLotto-Belisol Team03:24:10  +  00:05:35=44,816 
74 URSTanel KangertKAZAstana Pro Team03:24:10  +  00:05:35=44,816 
75 NZLJack BauerUSAGarmin Sharp03:24:10  +  00:05:35=44,816 
76 URSRamunas NavardauskasUSAGarmin Sharp03:25:55  +  00:07:20=44,435 
77 ITAMatteo MontagutiFRAAg2r La Mondiale03:26:45  +  00:08:10=44,256 
78 LUXFränk SchleckUSATrek Factory Racing03:26:45  +  00:08:10=44,256 
79 FRABrice FeilluFRABretagne - Séché Environnement03:26:45  +  00:08:10=44,256 
80 SUIMartin ElmigerCHEIAM Cycling03:26:45  +  00:08:10=44,256 
81 FRAArthur VichotFRAFDJ.fr03:26:45  +  00:08:10=44,256 
82 PORNelson OliveiraITALampre-Merida03:26:45  +  00:08:10=44,256 
83 ITAAlessandro PetacchiBELOmega Pharma – Quick Step03:26:45  +  00:08:10=44,256 
84 ESPEgoitz GarciaFRACofidis – Solutions Crédits03:26:45  +  00:08:10=44,256 
85 UKRAndriy GrivkoKAZAstana Pro Team03:26:45  +  00:08:10=44,256 
86 NEDTom LeezerNLDBelkin Pro Cycling03:26:45  +  00:08:10=44,256 
87 DENLars BakBELLotto-Belisol Team03:26:45  +  00:08:10=44,256 
88 ITADaniel OssUSABMC Racing Team03:26:55  +  00:08:20=44,221 
89 FRAYohann GèneFRATeam Europcar03:27:54  +  00:09:19=44,012 
90 ITADavide CimolaiITALampre-Merida03:28:30  +  00:09:55=43,885 
91 ESPMarkel IrizarUSATrek Factory Racing03:29:40  +  00:11:05=43,641 
92 FRASamuel DumoulinFRAAg2r La Mondiale03:29:40  +  00:11:05=43,641 
93 ITAGiovanni ViscontiESPMovistar Team03:29:40  +  00:11:05=43,641 
94 AUSMichael RogersRUSTinkoff Saxo03:29:40  +  00:11:05=43,641 
95 GERAndreas SchillingerDEUTeam NetApp – Endura03:29:40  +  00:11:05=43,641 
96 FRABryan CoquardFRATeam Europcar03:29:40  +  00:11:05=43,641 
97 BELGreg Van AvermaetUSABMC Racing Team03:32:00  +  00:13:25=43,160 
98 BELDries DevenynsNLDTeam Giant - Shimano03:32:00  +  00:13:25=43,160 
99 ESPJesus HerradaESPMovistar Team03:32:26  +  00:13:51=43,072 
100 GERJens VoigtUSATrek Factory Racing03:32:26  +  00:13:51=43,072 
101 RUSEgor SilinRUSTeam Katusha03:32:26  +  00:13:51=43,072 
102 ESPImanol ErvitiESPMovistar Team03:32:26  +  00:13:51=43,072 
103 ESPBeñat IntxaustiESPMovistar Team03:32:26  +  00:13:51=43,072 
104 ESPRubén PlazaESPMovistar Team03:32:26  +  00:13:51=43,072 
105 AUSAdam HansenBELLotto-Belisol Team03:32:26  +  00:13:51=43,072 
106 USAAlex HowesUSAGarmin Sharp03:32:26  +  00:13:51=43,072 
107 AUSZakkari DempsterDEUTeam NetApp – Endura03:32:26  +  00:13:51=43,072 
108 CANSvein TuftAUSOrica - GreenEDGE03:32:26  +  00:13:51=43,072 
109 AUSLuke DurbridgeAUSOrica - GreenEDGE03:32:26  +  00:13:51=43,072 
110 HRVKristijan DurasekITALampre-Merida03:32:26  +  00:13:51=43,072 
111 COLJosé SerpaITALampre-Merida03:32:26  +  00:13:51=43,072 
112 FRASébastien MinardFRAAg2r La Mondiale03:32:26  +  00:13:51=43,072 
113 FRAWilliam BonnetFRAFDJ.fr03:32:26  +  00:13:51=43,072 
114 FRAKévin RezaFRATeam Europcar03:32:26  +  00:13:51=43,072 
115 FRANicolas RocheRUSTinkoff Saxo03:32:26  +  00:13:51=43,072 
116 AUSHeinrich HausslerCHEIAM Cycling03:32:26  +  00:13:51=43,072 
117 FRAJean-Marc BideauFRABretagne - Séché Environnement03:33:58  +  00:15:23=42,764 
118 CANChristian MeierAUSOrica - GreenEDGE03:33:58  +  00:15:23=42,764 
119 SUIMarcel WyssCHEIAM Cycling03:33:58  +  00:15:23=42,764 
120 FRAPerrig QuemeneurFRATeam Europcar03:33:58  +  00:15:23=42,764 
121 AUSSimon GerransAUSOrica - GreenEDGE03:33:58  +  00:15:23=42,764 
122 SLOKristjan KorenITACannondale Pro Cycling03:33:58  +  00:15:23=42,764 
123 USAPeter StetinaUSABMC Racing Team03:33:58  +  00:15:23=42,764 
124 ITAFabio SabatiniITACannondale Pro Cycling03:33:58  +  00:15:23=42,764 
125 FRAMickael DelageFRAFDJ.fr03:33:58  +  00:15:23=42,764 
126 FRAJulien SimonFRACofidis – Solutions Crédits03:33:58  +  00:15:23=42,764 
127 ITAMatteo TosattoRUSTinkoff Saxo03:33:58  +  00:15:23=42,764 
128 DENMichael MørkøvRUSTinkoff Saxo03:33:58  +  00:15:23=42,764 
129 FRAFlorian VachonFRABretagne - Séché Environnement03:33:58  +  00:15:23=42,764 
130 ESPRafael Valls FerriITALampre-Merida03:33:58  +  00:15:23=42,764 
131 FRAArmindo FonsecaFRABretagne - Séché Environnement03:33:58  +  00:15:23=42,764 
132 FRAAmaël MoinardUSABMC Racing Team03:33:58  +  00:15:23=42,764 
133 FRAJean-Marc MarinoITACannondale Pro Cycling03:34:03  +  00:15:28=42,747 
134 ITAAlessandro De MarchiITACannondale Pro Cycling03:34:03  +  00:15:28=42,747 
135 USADanny PateGBRSky Procycling03:34:03  +  00:15:28=42,747 
136 URSRein TaaramäeFRACofidis – Solutions Crédits03:35:25  +  00:16:50=42,476 
137 FRAFlorian GuillouFRABretagne - Séché Environnement03:35:32  +  00:16:57=42,453 
138 NEDStef ClementNLDBelkin Pro Cycling03:36:04  +  00:17:29=42,348 
139 NORAlexander KristoffRUSTeam Katusha03:36:38  +  00:18:03=42,237 
140 ENGSimon YatesAUSOrica - GreenEDGE03:36:38  +  00:18:03=42,237 
141 GERAndré GreipelBELLotto-Belisol Team03:36:38  +  00:18:03=42,237 
142 URSGatis SmukulisRUSTeam Katusha03:36:38  +  00:18:03=42,237 
143 FRAJérémy RoyFRAFDJ.fr03:36:38  +  00:18:03=42,237 
144 FRASylvain ChavanelCHEIAM Cycling03:36:38  +  00:18:03=42,237 
145 USABenjamin KingUSAGarmin Sharp03:36:38  +  00:18:03=42,237 
146 FRANicolas EdetFRACofidis – Solutions Crédits03:36:38  +  00:18:03=42,237 
147 CZEJan BártaDEUTeam NetApp – Endura03:36:38  +  00:18:03=42,237 
148 SUIReto HollensteinCHEIAM Cycling03:36:38  +  00:18:03=42,237 
149 ITALuca PaoliniRUSTeam Katusha03:36:38  +  00:18:03=42,237 
150 NEDAlbert TimmerNLDTeam Giant - Shimano03:36:38  +  00:18:03=42,237 
151 GERMarcel KittelNLDTeam Giant - Shimano03:36:38  +  00:18:03=42,237 
152 FRACédric PineauFRAFDJ.fr03:36:38  +  00:18:03=42,237 
153 GERJohn DegenkolbNLDTeam Giant - Shimano03:36:38  +  00:18:03=42,237 
154 PORJosé João PimentaDEUTeam NetApp – Endura03:36:38  +  00:18:03=42,237 
155 FRABlel KadriFRAAg2r La Mondiale03:36:38  +  00:18:03=42,237 
156 FRABenoît JarrierFRABretagne - Séché Environnement03:37:35  +  00:19:00=42,053 
157 POLBartosz HuzarskiDEUTeam NetApp – Endura03:37:35  +  00:19:00=42,053 
158 NEDDanny van PoppelUSATrek Factory Racing03:39:23  +  00:20:48=41,708 
159 ESPLuis Angel MateFRACofidis – Solutions Crédits03:39:59  +  00:21:24=41,594 
160 FRARudy MolardFRACofidis – Solutions Crédits03:39:59  +  00:21:24=41,594 
161 NEDRoy CurversNLDTeam Giant - Shimano03:40:38  +  00:22:03=41,472 
162 FRAChristophe RiblonFRAAg2r La Mondiale03:41:15  +  00:22:40=41,356 
163 FRAMickaël CherelFRAAg2r La Mondiale03:41:15  +  00:22:40=41,356 
164 FRARomain FeilluFRABretagne - Séché Environnement03:41:15  +  00:22:40=41,356 
165 FRAAnthony DelaplaceFRABretagne - Séché Environnement03:41:15  +  00:22:40=41,356 
166 FRAAdrien PetitFRACofidis – Solutions Crédits03:41:15  +  00:22:40=41,356 
167 ESPJesus  HernandezRUSTinkoff Saxo03:41:15  +  00:22:40=41,356 
168 NEDTom-Jelte SlagterUSAGarmin Sharp03:41:15  +  00:22:40=41,356 
169 BRAMaximilano RichezeITALampre-Merida03:41:15  +  00:22:40=41,356 
170 ITAElia VivianiITACannondale Pro Cycling03:41:15  +  00:22:40=41,356 
171 ESPDaniel NavarroFRACofidis – Solutions Crédits03:41:15  +  00:22:40=41,356 
172 COLDarwin AtapumaUSABMC Racing Team03:41:15  +  00:22:40=41,356 
173 FRAArnaud GérardFRABretagne - Séché Environnement03:41:15  +  00:22:40=41,356 
174 FRAThomas VoecklerFRATeam Europcar03:41:15  +  00:22:40=41,356 
175 JPNYukiya ArashiroFRATeam Europcar03:41:15  +  00:22:40=41,356 
176 POLRafal MajkaRUSTinkoff Saxo03:41:15  +  00:22:40=41,356 
177 ESPJoaquim RodriguezRUSTeam Katusha03:41:15  +  00:22:40=41,356 
178 BELBart De ClercqBELLotto-Belisol Team03:41:15  +  00:22:40=41,356 
179 SLOSimon SpilakRUSTeam Katusha03:41:15  +  00:22:40=41,356 
180 PORSergio PaulinhoRUSTinkoff Saxo03:41:15  +  00:22:40=41,356 
181 SUISébastien ReichenbachCHEIAM Cycling03:41:15  +  00:22:40=41,356 
182 USAEdward KingITACannondale Pro Cycling03:41:15  +  00:22:40=41,356 
183 ESPDavid LopezGBRSky Procycling03:41:15  +  00:22:40=41,356 
184 ITAMichele ScarponiKAZAstana Pro Team03:41:15  +  00:22:40=41,356 
185 ITAAlessandro VanottiKAZAstana Pro Team03:41:15  +  00:22:40=41,356 
186 USAMatthew BuscheUSATrek Factory Racing03:41:15  +  00:22:40=41,356 
187 BLRVasil KiryienkaGBRSky Procycling03:41:15  +  00:22:40=41,356 
188 ESPDavid de la CruzDEUTeam NetApp – Endura03:41:15  +  00:22:40=41,356 
189 FRAArnold JeannessonFRAFDJ.fr03:41:15  +  00:22:40=41,356 
190 FRAArnaud DémareFRAFDJ.fr03:41:15  +  00:22:40=41,356 
191 CHNCheng JiNLDTeam Giant - Shimano03:41:43  +  00:23:08=41,269 
192 ESPXabier ZandioGBRSky Procycling03:51:27  +  00:32:52=39,533 
193 COLJanier AcevedoUSAGarmin Sharp03:51:27  +  00:32:52=39,533 

Withdrawls: 1
 
Rider
Team
Reason
1  KENChristopher FroomeGBRSky ProcyclingDid not finish

Todays birthdays.

1886  Jean Meziere
1887  Pierre Herbette
1887  Octave Lapize
1898  Felix Manthey
1920  René Biever
1920  Georges Ramoulux
1928  René Marigil
1940  Jean-Pierre Genet
1944  Giannino Bianco
1945  Eddy Cael
1950  Bert Pronk
1954  Marc Dierickx
1961  Chris Carmichael
1973  Levi Leipheimer